| time (UTC) | temp F | wind direction | speed MPH | gust MPH | rain 1hr in | rain 24hr in | rain mn in | humidity % | barometer mb |
| 20260904234031 | 46 | 0 | 0.0 | 0.0 | 0.00 | 0.08 | 0.00 | 94 | 998.2 |
| 20260904233534 | 46 | 0 | 0.0 | 0.0 | 0.00 | 0.08 | 0.00 | 94 | 998.2 |
| 20260904233056 | 46 | 0 | 0.0 | 1.0 | 0.00 | 0.08 | 0.00 | 94 | 998.2 |
| 20260904232536 | 47 | 0 | 0.0 | 3.0 | 0.00 | 0.08 | 0.00 | 94 | 998.1 |
| 20260904232035 | 47 | 356 | 1.0 | 3.0 | 0.00 | 0.08 | 0.00 | 94 | 998.2 |
| 20260904231553 | 47 | 352 | 1.0 | 2.0 | 0.00 | 0.08 | 0.00 | 94 | 998.1 |
| 20260904231035 | 47 | 355 | 0.0 | 2.0 | 0.00 | 0.08 | 0.00 | 94 | 998.2 |
| 20260904230535 | 47 | 352 | 0.0 | 2.0 | 0.00 | 0.08 | 0.00 | 94 | 998.2 |
| 20260904230048 | 47 | 0 | 0.0 | 0.0 | 0.00 | 0.08 | 0.00 | 94 | 998.3 |
| 20260904225531 | 47 | 0 | 0.0 | 0.0 | 0.00 | 0.08 | 0.00 | 94 | 998.3 |
| 20260904225034 | 47 | 0 | 0.0 | 0.0 | 0.00 | 0.08 | 0.00 | 94 | 998.3 |
| 20260904224546 | 47 | 0 | 0.0 | 0.0 | 0.00 | 0.08 | 0.00 | 93 | 998.3 |
| 20260904224035 | 47 | 0 | 0.0 | 0.0 | 0.00 | 0.08 | 0.00 | 93 | 998.2 |
| 20260904223536 | 47 | 0 | 0.0 | 0.0 | 0.00 | 0.08 | 0.00 | 93 | 998.2 |
| 20260904223056 | 47 | 0 | 0.0 | 0.0 | 0.00 | 0.08 | 0.00 | 93 | 998.1 |
| 20260904222533 | 47 | 0 | 0.0 | 0.0 | 0.00 | 0.08 | 0.00 | 93 | 998.2 |
| 20260904222032 | 47 | 0 | 0.0 | 0.0 | 0.00 | 0.08 | 0.00 | 93 | 998.3 |
| 20260904221600 | 47 | 0 | 0.0 | 0.0 | 0.00 | 0.08 | 0.00 | 93 | 998.2 |
| 20260904221033 | 47 | 0 | 0.0 | 0.0 | 0.00 | 0.08 | 0.00 | 93 | 998.3 |
| 20260904220532 | 48 | 0 | 0.0 | 0.0 | 0.00 | 0.08 | 0.00 | 93 | 998.3 |
| 20260904220111 | 48 | 0 | 0.0 | 0.0 | 0.00 | 0.08 | 0.00 | 92 | 998.2 |
| 20260904215532 | 48 | 0 | 0.0 | 0.0 | 0.00 | 0.08 | 0.08 | 92 | 998.2 |
| 20260904215031 | 48 | 0 | 0.0 | 0.0 | 0.00 | 0.08 | 0.08 | 92 | 998.1 |
| 20260904214553 | 48 | 0 | 0.0 | 0.0 | 0.00 | 0.08 | 0.08 | 92 | 998.1 |
| 20260904214032 | 48 | 0 | 0.0 | 0.0 | 0.00 | 0.08 | 0.08 | 92 | 998.0 |
| 20260904213532 | 49 | 0 | 0.0 | 0.0 | 0.00 | 0.08 | 0.08 | 92 | 998.1 |
| 20260904213054 | 49 | 0 | 0.0 | 0.0 | 0.00 | 0.08 | 0.08 | 92 | 998.0 |
| 20260904212532 | 49 | 0 | 0.0 | 0.0 | 0.00 | 0.08 | 0.08 | 92 | 998.0 |
| 20260904212032 | 49 | 0 | 0.0 | 0.0 | 0.00 | 0.08 | 0.08 | 91 | 998.1 |
| 20260904211555 | 49 | 0 | 0.0 | 0.0 | 0.00 | 0.08 | 0.08 | 91 | 998.1 |
| 20260904211032 | 49 | 0 | 0.0 | 0.0 | 0.00 | 0.08 | 0.08 | 91 | 998.0 |
| 20260904210532 | 49 | 0 | 0.0 | 0.0 | 0.00 | 0.08 | 0.08 | 91 | 997.8 |
| 20260904210100 | 49 | 0 | 0.0 | 0.0 | 0.00 | 0.08 | 0.08 | 90 | 997.9 |
| 20260904205533 | 50 | 0 | 0.0 | 0.0 | 0.00 | 0.08 | 0.08 | 90 | 997.9 |
| 20260904205034 | 50 | 0 | 0.0 | 2.0 | 0.00 | 0.08 | 0.08 | 90 | 997.9 |
| 20260904204555 | 50 | 0 | 0.0 | 2.0 | 0.00 | 0.08 | 0.08 | 90 | 998.0 |
| 20260904204032 | 51 | 342 | 1.0 | 3.0 | 0.00 | 0.08 | 0.08 | 89 | 997.9 |
| 20260904203532 | 51 | 349 | 1.0 | 3.0 | 0.00 | 0.08 | 0.08 | 90 | 998.0 |
| 20260904203048 | 51 | 352 | 3.0 | 4.0 | 0.00 | 0.08 | 0.08 | 90 | 997.9 |
| 20260904202535 | 51 | 340 | 3.0 | 4.0 | 0.00 | 0.08 | 0.08 | 90 | 997.9 |
| 20260904202035 | 50 | 335 | 3.0 | 4.0 | 0.00 | 0.08 | 0.08 | 90 | 998.0 |
| 20260904201556 | 50 | 21 | 0.0 | 2.0 | 0.00 | 0.08 | 0.08 | 90 | 998.0 |
| 20260904201031 | 50 | 0 | 0.0 | 0.0 | 0.00 | 0.08 | 0.08 | 90 | 998.1 |
| 20260904200533 | 50 | 0 | 0.0 | 0.0 | 0.00 | 0.08 | 0.08 | 90 | 997.9 |
| 20260904200121 | 50 | 0 | 0.0 | 0.0 | 0.00 | 0.08 | 0.08 | 89 | 998.0 |
| 20260904195535 | 50 | 0 | 0.0 | 0.0 | 0.00 | 0.08 | 0.08 | 89 | 998.0 |
| 20260904195035 | 50 | 0 | 0.0 | 0.0 | 0.00 | 0.08 | 0.08 | 88 | 997.9 |
| 20260904194631 | 51 | 0 | 0.0 | 0.0 | 0.00 | 0.08 | 0.08 | 88 | 998.0 |
| 20260904194032 | 51 | 0 | 0.0 | 0.0 | 0.00 | 0.08 | 0.08 | 87 | 998.0 |
| 20260904193532 | 51 | 0 | 0.0 | 2.0 | 0.00 | 0.08 | 0.08 | 87 | 998.0 |
| 20260904193047 | 51 | 0 | 0.0 | 2.0 | 0.00 | 0.08 | 0.08 | 87 | 997.9 |
| 20260904192531 | 52 | 325 | 1.0 | 2.0 | 0.00 | 0.08 | 0.08 | 86 | 998.0 |
| 20260904192034 | 52 | 0 | 0.0 | 2.0 | 0.00 | 0.08 | 0.08 | 86 | 997.9 |
| 20260904191610 | 52 | 7 | 1.0 | 3.0 | 0.00 | 0.08 | 0.08 | 85 | 998.0 |
| 20260904191032 | 52 | 0 | 1.0 | 3.0 | 0.00 | 0.08 | 0.08 | 85 | 998.1 |
| 20260904190532 | 52 | 0 | 0.0 | 0.0 | 0.00 | 0.08 | 0.08 | 85 | 998.1 |
| 20260904190057 | 52 | 0 | 0.0 | 0.0 | 0.00 | 0.08 | 0.08 | 84 | 998.1 |
| 20260904185532 | 52 | 0 | 0.0 | 0.0 | 0.00 | 0.08 | 0.08 | 83 | 998.0 |
| 20260904185032 | 53 | 0 | 0.0 | 0.0 | 0.00 | 0.08 | 0.08 | 82 | 998.0 |
| 20260904184554 | 54 | 0 | 0.0 | 0.0 | 0.00 | 0.08 | 0.08 | 82 | 998.0 |
| 20260904184034 | 54 | 0 | 0.0 | 0.0 | 0.00 | 0.08 | 0.08 | 81 | 997.9 |
| 20260904183535 | 54 | 0 | 0.0 | 0.0 | 0.00 | 0.08 | 0.08 | 81 | 997.9 |
| 20260904183055 | 54 | 0 | 0.0 | 0.0 | 0.00 | 0.08 | 0.08 | 80 | 997.9 |
| 20260904182536 | 54 | 0 | 0.0 | 0.0 | 0.00 | 0.08 | 0.08 | 79 | 997.9 |
| 20260904182034 | 54 | 0 | 0.0 | 0.0 | 0.00 | 0.08 | 0.08 | 80 | 997.8 |
| 20260904181555 | 54 | 0 | 0.0 | 0.0 | 0.00 | 0.08 | 0.08 | 80 | 997.9 |
| 20260904181128 | 54 | 0 | 0.0 | 0.0 | 0.00 | 0.08 | 0.08 | 81 | 997.9 |
| 20260904180532 | 53 | 0 | 0.0 | 0.0 | 0.00 | 0.08 | 0.08 | 82 | 997.7 |
| 20260904180052 | 53 | 0 | 0.0 | 0.0 | 0.00 | 0.08 | 0.08 | 83 | 997.9 |
| 20260904175531 | 54 | 0 | 0.0 | 0.0 | 0.00 | 0.08 | 0.08 | 82 | 997.9 |
| 20260904175033 | 54 | 0 | 0.0 | 0.0 | 0.00 | 0.08 | 0.08 | 81 | 997.9 |
| 20260904174547 | 54 | 0 | 0.0 | 0.0 | 0.00 | 0.08 | 0.08 | 81 | 997.9 |
| 20260904174032 | 54 | 0 | 0.0 | 0.0 | 0.00 | 0.08 | 0.08 | 81 | 997.9 |
| 20260904173534 | 55 | 0 | 0.0 | 0.0 | 0.00 | 0.08 | 0.08 | 82 | 997.9 |
| 20260904173103 | 55 | 0 | 0.0 | 0.0 | 0.00 | 0.08 | 0.08 | 81 | 997.9 |
| 20260904172531 | 55 | 0 | 0.0 | 0.0 | 0.00 | 0.08 | 0.08 | 80 | 997.9 |
| 20260904172034 | 56 | 0 | 0.0 | 0.0 | 0.00 | 0.08 | 0.08 | 81 | 997.8 |
| 20260904171558 | 56 | 0 | 0.0 | 0.0 | 0.00 | 0.08 | 0.08 | 81 | 997.8 |
| 20260904171032 | 56 | 0 | 0.0 | 0.0 | 0.00 | 0.08 | 0.08 | 80 | 997.7 |
| 20260904170534 | 57 | 0 | 0.0 | 0.0 | 0.00 | 0.08 | 0.08 | 80 | 997.7 |
| 20260904170047 | 57 | 0 | 0.0 | 0.0 | 0.00 | 0.08 | 0.08 | 80 | 997.7 |
| 20260904165532 | 57 | 0 | 0.0 | 0.0 | 0.00 | 0.08 | 0.08 | 79 | 997.7 |
| 20260904165032 | 57 | 0 | 0.0 | 0.0 | 0.00 | 0.08 | 0.08 | 79 | 997.6 |
| 20260904164559 | 58 | 0 | 0.0 | 0.0 | 0.00 | 0.08 | 0.08 | 78 | 997.6 |
| 20260904164037 | 58 | 0 | 0.0 | 0.0 | 0.00 | 0.08 | 0.08 | 77 | 997.7 |
| 20260904163531 | 58 | 0 | 0.0 | 0.0 | 0.00 | 0.08 | 0.08 | 75 | 997.7 |
| 20260904163051 | 58 | 126 | 0.0 | 0.0 | 0.00 | 0.08 | 0.08 | 75 | 997.7 |
| 20260904162534 | 58 | 0 | 0.0 | 0.0 | 0.00 | 0.08 | 0.08 | 74 | 997.8 |
| 20260904162034 | 58 | 0 | 0.0 | 0.0 | 0.00 | 0.08 | 0.08 | 74 | 997.8 |
| 20260904161548 | 58 | 0 | 0.0 | 0.0 | 0.00 | 0.08 | 0.08 | 73 | 997.7 |
| 20260904161032 | 58 | 0 | 0.0 | 0.0 | 0.00 | 0.08 | 0.08 | 72 | 997.7 |
| 20260904160532 | 59 | 0 | 0.0 | 1.0 | 0.00 | 0.08 | 0.08 | 71 | 997.7 |
| 20260904160047 | 59 | 0 | 0.0 | 1.0 | 0.00 | 0.08 | 0.08 | 72 | 997.7 |
| 20260904155533 | 59 | 0 | 0.0 | 1.0 | 0.00 | 0.08 | 0.08 | 72 | 997.8 |
| 20260904155031 | 59 | 0 | 0.0 | 3.0 | 0.00 | 0.08 | 0.08 | 73 | 997.7 |
| 20260904154545 | 59 | 0 | 0.0 | 3.0 | 0.00 | 0.08 | 0.08 | 72 | 997.7 |
| 20260904154031 | 60 | 120 | 1.0 | 3.0 | 0.00 | 0.08 | 0.08 | 71 | 997.7 |
| 20260904153531 | 61 | 0 | 0.0 | 3.0 | 0.00 | 0.08 | 0.08 | 71 | 997.7 |
| 20260904153053 | 61 | 91 | 1.0 | 3.0 | 0.00 | 0.08 | 0.08 | 71 | 997.8 |
| 20260904152531 | 61 | 164 | 1.0 | 3.0 | 0.00 | 0.08 | 0.08 | 73 | 997.8 |
| 20260904152035 | 60 | 219 | 1.0 | 3.0 | 0.00 | 0.08 | 0.08 | 73 | 997.9 |
| 20260904151552 | 59 | 211 | 1.0 | 4.0 | 0.00 | 0.08 | 0.08 | 76 | 997.8 |
| 20260904151033 | 59 | 195 | 2.0 | 5.0 | 0.00 | 0.08 | 0.08 | 75 | 997.9 |
| 20260904150534 | 59 | 207 | 2.0 | 5.0 | 0.00 | 0.08 | 0.08 | 75 | 997.9 |
| 20260904150054 | 59 | 167 | 3.0 | 5.0 | 0.00 | 0.08 | 0.08 | 76 | 997.8 |
| 20260904145532 | 59 | 197 | 1.0 | 3.0 | 0.00 | 0.08 | 0.08 | 76 | 998.0 |
| 20260904145035 | 59 | 117 | 0.0 | 2.0 | 0.00 | 0.08 | 0.08 | 76 | 997.9 |
| 20260904144554 | 59 | 137 | 0.0 | 3.0 | 0.00 | 0.08 | 0.08 | 75 | 997.9 |
| 20260904144033 | 59 | 198 | 0.0 | 4.0 | 0.00 | 0.08 | 0.08 | 76 | 997.8 |
| 20260904143534 | 59 | 129 | 2.0 | 4.0 | 0.00 | 0.08 | 0.08 | 76 | 997.9 |
| 20260904143052 | 59 | 113 | 2.0 | 3.0 | 0.00 | 0.08 | 0.08 | 74 | 997.9 |
| 20260904142538 | 59 | 0 | 2.0 | 3.0 | 0.00 | 0.08 | 0.08 | 75 | 997.9 |
| 20260904142034 | 59 | 124 | 1.0 | 2.0 | 0.00 | 0.08 | 0.08 | 74 | 997.9 |
| 20260904141622 | 59 | 77 | 0.0 | 2.0 | 0.00 | 0.08 | 0.08 | 74 | 997.9 |
| 20260904141031 | 59 | 224 | 0.0 | 3.0 | 0.00 | 0.08 | 0.08 | 75 | 997.9 |
| 20260904140531 | 59 | 103 | 0.0 | 5.0 | 0.00 | 0.08 | 0.08 | 75 | 997.9 |
| 20260904140106 | 60 | 105 | 2.0 | 5.0 | 0.00 | 0.08 | 0.08 | 74 | 997.9 |
| 20260904135532 | 60 | 129 | 1.0 | 3.0 | 0.00 | 0.08 | 0.08 | 73 | 997.8 |
| 20260904135035 | 61 | 154 | 0.0 | 5.0 | 0.00 | 0.08 | 0.08 | 72 | 998.0 |
| 20260904134558 | 63 | 150 | 1.0 | 5.0 | 0.00 | 0.08 | 0.08 | 73 | 997.9 |
| 20260904134032 | 62 | 95 | 2.0 | 4.0 | 0.00 | 0.08 | 0.08 | 72 | 998.0 |
| 20260904133534 | 61 | 95 | 1.0 | 3.0 | 0.00 | 0.08 | 0.08 | 75 | 998.1 |
| 20260904133106 | 60 | 136 | 1.0 | 7.0 | 0.00 | 0.08 | 0.08 | 77 | 998.1 |
| 20260904132535 | 60 | 111 | 2.0 | 7.0 | 0.00 | 0.08 | 0.08 | 77 | 998.1 |
| 20260904132032 | 59 | 100 | 2.0 | 7.0 | 0.00 | 0.08 | 0.08 | 78 | 998.2 |
| 20260904131555 | 59 | 136 | 0.0 | 4.0 | 0.00 | 0.08 | 0.08 | 77 | 998.3 |
| 20260904131031 | 59 | 101 | 0.0 | 4.0 | 0.00 | 0.08 | 0.08 | 77 | 998.3 |
| 20260904130531 | 59 | 107 | 2.0 | 4.0 | 0.00 | 0.08 | 0.08 | 79 | 998.4 |
| 20260904130054 | 59 | 129 | 0.0 | 5.0 | 0.00 | 0.08 | 0.08 | 77 | 998.5 |
| 20260904125533 | 59 | 0 | 0.0 | 5.0 | 0.00 | 0.08 | 0.08 | 77 | 998.5 |
| 20260904125037 | 59 | 217 | 2.0 | 4.0 | 0.00 | 0.08 | 0.08 | 77 | 998.6 |
| 20260904124549 | 59 | 0 | 1.0 | 2.0 | 0.00 | 0.08 | 0.08 | 78 | 998.6 |
| 20260904124034 | 59 | 0 | 0.0 | 3.0 | 0.00 | 0.08 | 0.08 | 79 | 998.7 |
| 20260904123535 | 58 | 150 | 2.0 | 3.0 | 0.00 | 0.08 | 0.08 | 79 | 998.7 |
| 20260904123047 | 58 | 143 | 0.0 | 4.0 | 0.00 | 0.08 | 0.08 | 79 | 998.7 |
| 20260904122533 | 58 | 0 | 1.0 | 4.0 | 0.00 | 0.08 | 0.08 | 77 | 998.8 |
| 20260904122031 | 58 | 108 | 1.0 | 3.0 | 0.00 | 0.08 | 0.08 | 77 | 998.7 |
| 20260904121556 | 58 | 123 | 1.0 | 3.0 | 0.00 | 0.08 | 0.08 | 78 | 998.6 |
| 20260904121031 | 58 | 288 | 0.0 | 1.0 | 0.00 | 0.08 | 0.08 | 79 | 998.7 |
| 20260904120545 | 58 | 184 | 0.0 | 2.0 | 0.00 | 0.08 | 0.08 | 80 | 998.7 |
| 20260904120047 | 58 | 148 | 0.0 | 2.0 | 0.00 | 0.08 | 0.08 | 80 | 998.8 |
| 20260904115534 | 57 | 121 | 1.0 | 2.0 | 0.00 | 0.08 | 0.08 | 81 | 998.9 |
| 20260904115031 | 57 | 129 | 0.0 | 1.0 | 0.00 | 0.08 | 0.08 | 81 | 998.9 |
| 20260904114549 | 57 | 110 | 0.0 | 2.0 | 0.00 | 0.08 | 0.08 | 81 | 999.0 |
| 20260904114034 | 57 | 0 | 1.0 | 2.0 | 0.00 | 0.08 | 0.08 | 81 | 999.0 |
| 20260904113532 | 57 | 136 | 0.0 | 2.0 | 0.00 | 0.08 | 0.08 | 81 | 999.0 |
| 20260904113046 | 57 | 293 | 0.0 | 2.0 | 0.00 | 0.08 | 0.08 | 81 | 999.0 |
| 20260904112531 | 57 | 0 | 0.0 | 1.0 | 0.00 | 0.08 | 0.08 | 82 | 999.1 |
| 20260904112035 | 57 | 0 | 0.0 | 2.0 | 0.00 | 0.08 | 0.08 | 82 | 999.0 |
| 20260904111548 | 56 | 0 | 1.0 | 2.0 | 0.00 | 0.08 | 0.08 | 82 | 999.0 |
| 20260904111031 | 57 | 345 | 0.0 | 3.0 | 0.00 | 0.08 | 0.08 | 82 | 998.9 |
| 20260904110534 | 57 | 340 | 1.0 | 4.0 | 0.00 | 0.08 | 0.08 | 81 | 999.1 |
| 20260904110052 | 57 | 343 | 1.0 | 4.0 | 0.00 | 0.08 | 0.08 | 80 | 999.0 |
| 20260904105532 | 57 | 0 | 2.0 | 5.0 | 0.00 | 0.08 | 0.08 | 81 | 999.0 |
| 20260904105031 | 57 | 331 | 2.0 | 5.0 | 0.00 | 0.08 | 0.08 | 81 | 999.1 |
| 20260904104551 | 57 | 23 | 1.0 | 5.0 | 0.00 | 0.08 | 0.08 | 80 | 999.1 |
| 20260904104030 | 56 | 335 | 1.0 | 4.0 | 0.00 | 0.08 | 0.08 | 81 | 999.1 |
| 20260904103530 | 56 | 327 | 2.0 | 6.0 | 0.00 | 0.08 | 0.08 | 82 | 999.2 |
| 20260904103051 | 56 | 309 | 4.0 | 6.0 | 0.00 | 0.08 | 0.08 | 82 | 999.2 |
| 20260904102532 | 57 | 342 | 2.0 | 6.0 | 0.00 | 0.08 | 0.08 | 82 | 999.2 |
| 20260904102032 | 56 | 350 | 3.0 | 6.0 | 0.00 | 0.08 | 0.08 | 83 | 999.2 |
| 20260904101546 | 56 | 336 | 4.0 | 6.0 | 0.00 | 0.08 | 0.08 | 82 | 999.2 |
| 20260904101032 | 57 | 301 | 3.0 | 6.0 | 0.00 | 0.08 | 0.08 | 83 | 999.3 |
| 20260904100531 | 57 | 352 | 3.0 | 6.0 | 0.00 | 0.08 | 0.08 | 81 | 999.2 |
| 20260904100054 | 57 | 335 | 1.0 | 5.0 | 0.00 | 0.08 | 0.08 | 85 | 999.3 |
| 20260904095532 | 57 | 262 | 2.0 | 8.0 | 0.00 | 0.08 | 0.08 | 87 | 999.4 |
| 20260904095031 | 55 | 68 | 3.0 | 8.0 | 0.00 | 0.08 | 0.08 | 87 | 999.4 |
| 20260904094549 | 55 | 39 | 3.0 | 6.0 | 0.00 | 0.08 | 0.08 | 87 | 999.5 |
| 20260904094034 | 54 | 340 | 3.0 | 6.0 | 0.00 | 0.08 | 0.08 | 89 | 999.5 |
| 20260904093534 | 54 | 2 | 4.0 | 6.0 | 0.00 | 0.08 | 0.08 | 90 | 999.6 |
| 20260904093051 | 54 | 319 | 4.0 | 8.0 | 0.00 | 0.08 | 0.08 | 91 | 999.8 |
| 20260904092531 | 53 | 349 | 4.0 | 8.0 | 0.00 | 0.08 | 0.08 | 91 | 999.7 |
| 20260904092031 | 53 | 338 | 4.0 | 8.0 | 0.00 | 0.08 | 0.08 | 91 | 999.8 |
| 20260904091544 | 53 | 304 | 4.0 | 8.0 | 0.00 | 0.08 | 0.08 | 92 | 999.9 |
| 20260904091035 | 53 | 337 | 6.0 | 8.0 | 0.00 | 0.08 | 0.08 | 92 | 1000.0 |
| 20260904090535 | 53 | 334 | 4.0 | 7.0 | 0.00 | 0.08 | 0.08 | 92 | 999.8 |
| 20260904090053 | 52 | 335 | 5.0 | 10.0 | 0.00 | 0.08 | 0.08 | 92 | 999.8 |
| 20260904085531 | 52 | 342 | 6.0 | 10.0 | 0.00 | 0.08 | 0.08 | 92 | 1000.0 |
| 20260904085034 | 52 | 347 | 4.0 | 9.0 | 0.00 | 0.08 | 0.08 | 92 | 1000.0 |
| 20260904084548 | 52 | 323 | 4.0 | 9.0 | 0.00 | 0.08 | 0.08 | 92 | 999.8 |
| 20260904084030 | 52 | 354 | 6.0 | 9.0 | 0.00 | 0.08 | 0.08 | 92 | 999.8 |
| 20260904083532 | 52 | 310 | 4.0 | 9.0 | 0.00 | 0.08 | 0.08 | 92 | 999.9 |
| 20260904083053 | 53 | 347 | 5.0 | 9.0 | 0.00 | 0.08 | 0.08 | 92 | 999.7 |
| 20260904082533 | 53 | 327 | 4.0 | 10.0 | 0.00 | 0.08 | 0.08 | 91 | 999.7 |
| 20260904082032 | 53 | 328 | 4.0 | 10.0 | 0.00 | 0.08 | 0.08 | 91 | 999.7 |
| 20260904081551 | 53 | 341 | 6.0 | 10.0 | 0.00 | 0.08 | 0.08 | 91 | 999.7 |
| 20260904081033 | 53 | 329 | 4.0 | 6.0 | 0.00 | 0.08 | 0.08 | 91 | 999.7 |
| 20260904080533 | 53 | 359 | 3.0 | 8.0 | 0.00 | 0.08 | 0.08 | 91 | 999.7 |
| 20260904080053 | 53 | 349 | 4.0 | 8.0 | 0.00 | 0.08 | 0.08 | 91 | 999.8 |
| 20260904075534 | 53 | 323 | 4.0 | 8.0 | 0.00 | 0.08 | 0.08 | 91 | 999.7 |
| 20260904075032 | 53 | 20 | 4.0 | 7.0 | 0.00 | 0.08 | 0.08 | 91 | 999.8 |
| 20260904074546 | 53 | 316 | 3.0 | 7.0 | 0.00 | 0.08 | 0.08 | 92 | 999.8 |
| 20260904074033 | 52 | 358 | 3.0 | 6.0 | 0.00 | 0.08 | 0.08 | 92 | 999.8 |
| 20260904073533 | 52 | 4 | 4.0 | 7.0 | 0.00 | 0.08 | 0.08 | 92 | 999.8 |
| 20260904073056 | 52 | 328 | 4.0 | 7.0 | 0.00 | 0.08 | 0.08 | 92 | 999.8 |
| 20260904072534 | 52 | 38 | 4.0 | 7.0 | 0.00 | 0.08 | 0.08 | 92 | 999.9 |
| 20260904072033 | 52 | 16 | 2.0 | 5.0 | 0.00 | 0.08 | 0.08 | 92 | 1000.0 |
| 20260904071552 | 52 | 327 | 3.0 | 7.0 | 0.00 | 0.08 | 0.08 | 92 | 999.8 |
| 20260904071037 | 52 | 308 | 3.0 | 8.0 | 0.00 | 0.08 | 0.08 | 92 | 999.8 |
| 20260904070533 | 52 | 357 | 3.0 | 8.0 | 0.00 | 0.08 | 0.08 | 93 | 1000.0 |
| 20260904070049 | 51 | 328 | 4.0 | 8.0 | 0.00 | 0.08 | 0.08 | 93 | 1000.0 |
| 20260904065533 | 51 | 339 | 4.0 | 8.0 | 0.00 | 0.08 | 0.08 | 93 | 1000.0 |
| 20260904065032 | 51 | 338 | 4.0 | 6.0 | 0.00 | 0.08 | 0.08 | 93 | 1000.1 |
| 20260904064557 | 51 | 345 | 3.0 | 6.0 | 0.00 | 0.08 | 0.08 | 93 | 1000.1 |
| 20260904064033 | 51 | 326 | 4.0 | 7.0 | 0.00 | 0.08 | 0.08 | 93 | 1000.2 |
| 20260904063533 | 51 | 339 | 4.0 | 7.0 | 0.00 | 0.08 | 0.08 | 93 | 1000.2 |
| 20260904063052 | 51 | 341 | 4.0 | 7.0 | 0.00 | 0.08 | 0.08 | 93 | 1000.1 |
| 20260904062532 | 51 | 335 | 4.0 | 7.0 | 0.00 | 0.08 | 0.08 | 93 | 1000.2 |
| 20260904062034 | 51 | 10 | 4.0 | 7.0 | 0.00 | 0.08 | 0.08 | 93 | 1000.2 |
| 20260904061550 | 50 | 338 | 3.0 | 6.0 | 0.00 | 0.08 | 0.08 | 93 | 1000.4 |
| 20260904061033 | 50 | 343 | 3.0 | 6.0 | 0.00 | 0.08 | 0.08 | 93 | 1000.3 |
| 20260904060533 | 50 | 352 | 4.0 | 6.0 | 0.00 | 0.08 | 0.08 | 93 | 1000.4 |
| 20260904060047 | 50 | 22 | 4.0 | 6.0 | 0.00 | 0.08 | 0.08 | 93 | 1000.6 |
| 20260904055532 | 50 | 13 | 2.0 | 5.0 | 0.00 | 0.08 | 0.08 | 93 | 1000.7 |
| 20260904055032 | 50 | 349 | 3.0 | 5.0 | 0.00 | 0.08 | 0.08 | 93 | 1000.4 |
| 20260904054553 | 50 | 333 | 2.0 | 5.0 | 0.00 | 0.08 | 0.08 | 93 | 1000.6 |
| 20260904054032 | 50 | 331 | 2.0 | 6.0 | 0.00 | 0.08 | 0.08 | 93 | 1000.5 |
| 20260904053534 | 50 | 328 | 2.0 | 6.0 | 0.00 | 0.08 | 0.08 | 93 | 1000.5 |
| 20260904053051 | 50 | 38 | 3.0 | 7.0 | 0.00 | 0.08 | 0.08 | 93 | 1000.5 |
| 20260904052531 | 50 | 334 | 3.0 | 7.0 | 0.00 | 0.08 | 0.08 | 93 | 1000.5 |
| 20260904052034 | 50 | 360 | 3.0 | 5.0 | 0.00 | 0.08 | 0.08 | 93 | 1000.7 |
| 20260904051548 | 50 | 5 | 3.0 | 5.0 | 0.00 | 0.08 | 0.08 | 93 | 1000.6 |
| 20260904051030 | 50 | 354 | 3.0 | 5.0 | 0.00 | 0.08 | 0.08 | 93 | 1000.7 |
| 20260904050530 | 50 | 347 | 3.0 | 7.0 | 0.00 | 0.08 | 0.08 | 93 | 1000.7 |
| 20260904050056 | 50 | 347 | 4.0 | 7.0 | 0.00 | 0.08 | 0.08 | 93 | 1000.7 |
| 20260904045532 | 50 | 347 | 4.0 | 7.0 | 0.00 | 0.08 | 0.08 | 93 | 1000.7 |
| 20260904045032 | 50 | 345 | 4.0 | 7.0 | 0.00 | 0.08 | 0.08 | 93 | 1000.6 |
| 20260904044557 | 50 | 10 | 4.0 | 7.0 | 0.00 | 0.08 | 0.08 | 93 | 1000.8 |
| 20260904044034 | 50 | 336 | 3.0 | 7.0 | 0.00 | 0.08 | 0.08 | 93 | 1000.8 |
| 20260904043535 | 50 | 1 | 3.0 | 6.0 | 0.00 | 0.08 | 0.08 | 94 | 1000.8 |
| 20260904043046 | 50 | 9 | 3.0 | 5.0 | 0.00 | 0.08 | 0.08 | 93 | 1000.8 |
| 20260904042530 | 50 | 328 | 1.0 | 3.0 | 0.00 | 0.08 | 0.08 | 93 | 1000.8 |
| 20260904042035 | 50 | 13 | 1.0 | 6.0 | 0.00 | 0.08 | 0.08 | 93 | 1000.8 |
| 20260904041552 | 50 | 11 | 2.0 | 6.0 | 0.00 | 0.08 | 0.08 | 93 | 1000.7 |
| 20260904041033 | 50 | 358 | 3.0 | 6.0 | 0.00 | 0.08 | 0.08 | 94 | 1000.9 |
| 20260904040536 | 50 | 338 | 2.0 | 4.0 | 0.00 | 0.08 | 0.08 | 94 | 1000.9 |
| 20260904040057 | 50 | 338 | 2.0 | 4.0 | 0.00 | 0.08 | 0.08 | 94 | 1000.9 |
| 20260904035534 | 50 | 14 | 2.0 | 4.0 | 0.00 | 0.08 | 0.08 | 94 | 1000.9 |
| 20260904035032 | 50 | 336 | 1.0 | 3.0 | 0.00 | 0.08 | 0.08 | 93 | 1001.0 |
| 20260904034601 | 50 | 330 | 0.0 | 2.0 | 0.00 | 0.08 | 0.08 | 93 | 1000.9 |
| 20260904034033 | 50 | 0 | 0.0 | 1.0 | 0.00 | 0.08 | 0.08 | 93 | 1001.0 |
| 20260904033534 | 50 | 0 | 0.0 | 3.0 | 0.00 | 0.08 | 0.08 | 94 | 1001.1 |
| 20260904033055 | 50 | 0 | 0.0 | 3.0 | 0.00 | 0.08 | 0.08 | 93 | 1001.1 |
| 20260904032530 | 50 | 1 | 0.0 | 5.0 | 0.01 | 0.08 | 0.08 | 94 | 1001.2 |
| 20260904032030 | 50 | 343 | 1.0 | 5.0 | 0.01 | 0.08 | 0.08 | 94 | 1001.2 |
| 20260904031552 | 50 | 359 | 3.0 | 5.0 | 0.01 | 0.08 | 0.08 | 94 | 1001.2 |
| 20260904031033 | 50 | 335 | 3.0 | 5.0 | 0.01 | 0.08 | 0.08 | 94 | 1001.2 |
| 20260904030534 | 50 | 334 | 3.0 | 5.0 | 0.02 | 0.08 | 0.08 | 94 | 1001.3 |
| 20260904030050 | 50 | 342 | 2.0 | 4.0 | 0.02 | 0.08 | 0.08 | 94 | 1001.4 |
| 20260904025536 | 50 | 328 | 2.0 | 4.0 | 0.03 | 0.08 | 0.08 | 94 | 1001.4 |
| 20260904025035 | 50 | 350 | 2.0 | 4.0 | 0.02 | 0.07 | 0.07 | 94 | 1001.5 |
| 20260904024550 | 50 | 359 | 2.0 | 4.0 | 0.03 | 0.07 | 0.07 | 94 | 1001.6 |
| 20260904024033 | 50 | 29 | 2.0 | 4.0 | 0.03 | 0.07 | 0.07 | 94 | 1001.6 |
| 20260904023536 | 50 | 4 | 1.0 | 3.0 | 0.03 | 0.07 | 0.07 | 94 | 1001.6 |
| 20260904023055 | 50 | 333 | 2.0 | 3.0 | 0.03 | 0.07 | 0.07 | 94 | 1001.8 |
| 20260904022532 | 50 | 353 | 2.0 | 4.0 | 0.03 | 0.07 | 0.07 | 94 | 1001.8 |
| 20260904022034 | 50 | 345 | 2.0 | 4.0 | 0.03 | 0.07 | 0.07 | 94 | 1001.9 |
| 20260904021552 | 50 | 330 | 3.0 | 4.0 | 0.03 | 0.07 | 0.07 | 94 | 1001.7 |
| 20260904021031 | 50 | 322 | 2.0 | 4.0 | 0.04 | 0.07 | 0.07 | 94 | 1001.8 |
| 20260904020533 | 50 | 7 | 1.0 | 4.0 | 0.03 | 0.06 | 0.06 | 94 | 1001.8 |
| 20260904020052 | 50 | 6 | 0.0 | 1.0 | 0.03 | 0.06 | 0.06 | 94 | 1001.8 |
| 20260904015530 | 50 | 0 | 0.0 | 1.0 | 0.03 | 0.05 | 0.05 | 93 | 1001.9 |
| 20260904015032 | 50 | 0 | 0.0 | 1.0 | 0.03 | 0.05 | 0.05 | 93 | 1002.1 |
| 20260904014557 | 50 | 0 | 0.0 | 0.0 | 0.03 | 0.04 | 0.04 | 93 | 1001.9 |
| 20260904014031 | 50 | 0 | 0.0 | 1.0 | 0.03 | 0.04 | 0.04 | 93 | 1002.1 |
| 20260904013535 | 50 | 0 | 0.0 | 1.0 | 0.03 | 0.04 | 0.04 | 93 | 1002.1 |
| 20260904013052 | 50 | 0 | 0.0 | 1.0 | 0.02 | 0.03 | 0.03 | 93 | 1002.2 |
| 20260904012536 | 50 | 0 | 0.0 | 0.0 | 0.02 | 0.03 | 0.03 | 93 | 1002.1 |
| 20260904012034 | 50 | 0 | 0.0 | 0.0 | 0.03 | 0.03 | 0.03 | 93 | 1002.1 |
| 20260904011556 | 50 | 0 | 0.0 | 0.0 | 0.03 | 0.03 | 0.03 | 93 | 1002.3 |
| 20260904011035 | 50 | 0 | 0.0 | 0.0 | 0.02 | 0.02 | 0.02 | 92 | 1002.3 |
| 20260904010538 | 50 | 0 | 0.0 | 0.0 | 0.02 | 0.02 | 0.02 | 92 | 1002.4 |
| 20260904010049 | 50 | 0 | 0.0 | 0.0 | 0.02 | 0.02 | 0.02 | 92 | 1002.4 |
| 20260904005533 | 51 | 0 | 0.0 | 4.0 | 0.02 | 0.02 | 0.02 | 92 | 1002.3 |
| 20260904005035 | 51 | 0 | 0.0 | 4.0 | 0.01 | 0.01 | 0.01 | 92 | 1002.3 |
| 20260904004552 | 51 | 342 | 2.0 | 4.0 | 0.01 | 0.01 | 0.01 | 92 | 1002.2 |
| 20260904004034 | 51 | 0 | 0.0 | 5.0 | 0.01 | 0.01 | 0.01 | 92 | 1002.3 |
| 20260904003538 | 51 | 0 | 0.0 | 5.0 | 0.01 | 0.01 | 0.01 | 92 | 1002.4 |
| 20260904003047 | 51 | 0 | 2.0 | 5.0 | 0.01 | 0.01 | 0.01 | 92 | 1002.6 |
| 20260904002531 | 51 | 331 | 0.0 | 4.0 | 0.00 | 0.00 | 0.00 | 92 | 1002.5 |
| 20260904002031 | 51 | 0 | 0.0 | 3.0 | 0.00 | 0.00 | 0.00 | 92 | 1002.6 |
| 20260904001546 | 51 | 0 | 0.0 | 4.0 | 0.00 | 0.00 | 0.00 | 92 | 1002.7 |
| 20260904001034 | 51 | 10 | 2.0 | 4.0 | 0.00 | 0.00 | 0.00 | 92 | 1002.7 |
| 20260904000534 | 51 | 358 | 2.0 | 4.0 | 0.00 | 0.00 | 0.00 | 93 | 1002.8 |
| 20260904000048 | 51 | 347 | 2.0 | 4.0 | 0.00 | 0.00 | 0.00 | 93 | 1002.9 |
| 20260903235534 | 51 | 339 | 2.0 | 4.0 | 0.00 | 0.00 | 0.00 | 93 | 1002.8 |
| 20260903235038 | 50 | 2 | 0.0 | 1.0 | 0.00 | 0.00 | 0.00 | 93 | 1002.9 |
| 20260903234548 | 50 | 0 | 0.0 | 0.0 | 0.00 | 0.00 | 0.00 | 93 | 1002.9 |